EHI
36 36 35 33 30 28 30 33 35 33 28 27 29 27 23 19 16 14 12 10 8 6 7 9 8 7 7 6 5 4 2 0 1 2 2 3 5 6 5 2 1 0 0
35 36 36 34 32 30 31 32 34 33 28 24 25 25 21 17 15 14 12 9 7 5 6 7 7 6 6 6 5 4 2 1 1 2 2 3 5 6 6 5 3 1 0
32 33 35 34 32 31 31 31 32 33 29 23 21 21 19 16 15 15 13 10 8 7 6 7 7 6 6 7 6 5 4 2 2 2 2 3 4 5 6 6 4 1 0
30 29 30 31 30 28 28 28 29 30 28 24 21 20 18 17 16 16 15 12 11 11 10 9 8 7 7 8 7 7 6 4 3 3 2 3 4 6 6 5 4 1 0
27 24 24 25 25 25 25 26 25 25 25 25 23 21 20 17 14 14 15 15 15 15 14 10 7 6 6 5 4 5 5 3 3 4 3 2 5 7 7 5 4 2 1
22 21 20 21 21 22 22 22 22 22 24 24 22 22 21 17 10 9 13 16 17 16 14 9 5 3 3 2 1 1 1 1 3 4 4 3 5 7 7 6 4 3 3
19 19 19 19 20 21 20 20 21 22 23 22 22 23 23 16 7 5 10 16 18 16 13 7 3 2 3 3 2 1 1 1 1 3 3 3 4 6 6 6 5 4 3
16 17 18 18 20 21 21 21 22 23 24 23 23 24 23 15 6 3 8 15 18 17 11 6 4 5 5 5 4 3 3 3 2 1 1 1 2 3 5 5 4 3 3
15 16 16 16 17 19 21 22 23 25 25 24 23 25 23 15 5 2 6 13 17 15 9 5 6 6 5 4 5 5 5 5 4 2 1 0 0 1 2 3 3 3 3
14 15 16 15 15 18 21 23 24 24 23 21 23 24 23 16 6 1 5 10 12 9 6 4 4 4 3 3 5 6 6 6 5 4 2 1 2 1 1 1 2 2 1
12 14 15 15 14 16 20 23 23 23 21 20 22 23 21 16 7 1 3 6 7 6 6 5 3 1 1 1 3 5 5 5 5 5 5 5 5 4 3 3 3 2 1
12 12 12 12 11 13 18 21 22 21 20 20 20 19 17 13 7 2 1 2 4 7 8 7 3 1 0 0 1 2 3 3 5 7 7 7 7 6 6 6 6 5 3
12 11 11 9 8 10 14 18 19 18 17 17 15 13 12 10 7 4 1 0 2 5 7 4 2 0 0 0 0 1 1 2 5 7 7 8 8 8 7 8 9 8 7
11 11 10 8 7 8 9 12 14 14 14 14 12 10 9 7 7 5 3 1 2 4 5 3 2 1 1 1 1 1 1 3 5 6 6 7 8 9 8 8 9 9 8
11 11 10 8 7 6 6 7 9 9 9 10 10 8 6 4 3 2 2 2 2 3 5 5 4 3 4 4 5 4 4 4 5 6 7 7 8 9 8 8 8 7 7
12 12 11 10 8 6 4 4 4 3 3 4 5 4 2 1 0 0 1 1 1 1 3 5 5 5 6 6 7 7 7 7 7 8 8 8 7 7 7 7 6 6 5
11 11 10 10 9 6 5 4 4 2 1 1 1 0 0 0 0 0 0 0 1 1 2 3 5 6 6 6 6 8 8 8 9 9 9 8 7 7 7 7 6 5 4
7 6 6 8 8 7 6 7 6 4 2 1 0 0 0 0 0 0 0 0 1 2 3 3 3 5 5 4 5 6 7 7 8 9 9 9 7 7 6 6 6 4 2
4 4 4 5 6 6 6 6 6 4 3 2 1 0 0 0 0 0 0 0 1 1 2 2 2 3 3 3 4 5 5 5 6 8 9 9 9 7 6 6 5 2 1
5 5 5 5 6 6 5 4 4 3 3 2 1 0 0 0 0 0 0 0 0 0 1 1 1 2 2 3 3 4 4 4 6 7 8 9 9 9 7 5 3 2 1
6 6 5 5 6 5 4 3 3 3 2 1 0 0 0 0 0 0 0 0 0 0 0 0 1 2 3 4 4 3 3 4 6 7 7 8 9 9 7 4 3 3 3
6 5 5 5 5 4 3 2 2 1 1 0 0 0 0 0 0 0 0 0 0 0 0 0 1 2 4 5 5 4 3 4 5 6 6 7 7 7 6 4 4 4 4
4 4 4 3 3 1 1 1 1 0 0 0 0 0 0 0 0 0 0 0 0 1 1 1 1 3 4 5 4 3 3 3 4 5 6 6 5 4 4 3 3 3 3
2 2 2 1 1 0 0 0 0 0 0 0 0 0 0 0 0 0 0 0 0 1 2 3 3 3 3 4 3 3 3 3 3 4 5 6 4 3 3 3 3 1 1
1 1 1 0 0 0 0 0 0 0 0 0 0 0 0 0 0 0 0 1 1 2 3 3 3 3 3 3 3 3 3 2 3 3 4 5 4 3 3 3 2 1 0
0 0 0 0 0 0 0 0 0 0 0 0 0 0 0 0 0 0 1 2 2 3 3 3 3 3 3 3 3 3 2 1 2 3 4 4 4 3 3 3 2 1 0
Wind_Speed
4 3 3 3 3 3 2 2 2 2 3 3 3 3 3 3 3 2 2 3 3 2 2 2 2 2 1 2 2 1 1 1 1 2 1 1 1 0 0 1 1 2 2
3 3 2 2 3 3 2 2 3 3 3 3 3 3 4 3 3 3 4 3 3 3 2 2 2 2 1 2 2 2 2 2 1 3 2 2 2 1 1 2 2 2 2
2 2 2 2 2 2 2 2 2 3 3 3 3 4 3 3 3 3 3 3 2 2 2 2 2 2 1 1 2 2 2 2 2 2 3 2 1 1 1 2 3 2 3
1 2 2 1 2 2 2 2 2 2 3 3 4 4 4 3 3 3 3 3 3 2 2 2 2 2 1 2 2 2 2 2 3 2 2 2 2 2 1 1 2 2 3
1 2 2 1 1 1 2 2 2 3 4 3 4 4 4 4 3 2 3 3 2 2 2 2 2 1 1 1 2 2 2 2 2 2 2 2 2 2 1 1 2 2 3
2 2 2 2 2 2 2 3 3 3 3 3 4 4 3 3 3 2 1 2 2 2 2 2 2 3 3 3 2 2 2 3 3 2 2 3 3 2 2 2 2 3 2
2 2 2 2 2 2 3 3 3 3 3 3 3 3 3 3 3 3 2 2 2 3 3 2 3 2 1 1 2 3 3 4 4 3 3 4 4 3 2 3 3 3 3
2 2 2 2 2 3 3 2 2 2 3 3 3 3 3 3 4 4 3 3 3 3 2 2 2 1 1 1 2 2 3 3 4 4 3 4 4 3 2 3 3 3 3
2 2 2 2 2 3 3 3 2 2 3 3 3 4 3 3 5 5 4 2 2 3 3 3 2 1 1 2 2 2 3 3 4 3 4 4 4 4 3 2 2 2 3
2 2 2 3 3 3 3 3 3 3 4 4 4 4 4 4 6 6 5 3 3 3 3 2 2 2 2 2 2 2 3 3 2 3 3 4 3 3 3 3 2 2 3
2 2 3 3 3 3 3 3 3 3 3 3 4 4 4 4 6 7 6 3 3 3 3 2 1 2 2 3 3 3 4 3 3 3 3 3 2 2 2 2 2 2 2
2 2 2 3 4 3 2 3 3 3 3 4 4 4 3 3 5 7 8 7 5 3 3 1 1 2 3 4 4 5 5 4 3 3 3 2 2 2 2 2 2 3 3
1 1 2 3 3 2 3 3 3 3 3 3 3 3 3 3 4 6 7 7 5 3 2 2 2 4 4 4 5 6 4 3 3 3 3 3 2 2 2 2 2 2 3
1 1 2 2 2 2 2 3 3 3 3 3 3 3 2 2 2 3 3 3 3 3 2 3 4 6 6 5 4 4 4 4 3 3 3 3 2 2 2 2 2 2 2
2 2 2 3 3 2 2 2 3 2 2 2 2 1 1 1 1 1 1 1 1 1 1 2 3 3 3 3 3 3 3 3 3 3 3 3 2 2 2 2 2 1 2
2 2 2 2 2 3 3 2 1 1 1 2 2 1 1 2 3 1 1 2 2 2 1 3 3 3 3 3 2 3 2 2 2 2 2 2 3 3 2 2 1 2 2
2 2 2 3 3 3 3 3 2 1 1 2 2 2 3 4 3 2 2 1 2 2 2 4 3 3 3 2 2 3 2 2 1 2 2 2 2 2 1 1 2 2 2
3 3 3 3 3 3 3 2 2 2 2 1 1 3 3 3 3 4 3 1 2 3 3 3 3 2 2 2 2 2 2 1 2 2 2 2 2 2 2 2 2 2 2
2 2 2 2 2 2 2 1 1 2 1 1 0 1 2 3 3 3 3 2 3 3 3 2 2 2 2 2 2 2 2 1 2 2 2 2 2 2 2 2 1 3 2
1 2 2 2 2 2 1 1 1 1 1 1 1 1 1 1 1 2 3 3 2 2 3 3 2 2 1 1 1 1 1 1 1 1 2 2 2 2 2 2 2 2 2
2 2 2 2 2 2 2 1 1 1 1 1 0 1 1 2 2 2 2 2 2 3 3 2 2 2 1 1 1 1 1 1 1 1 2 2 2 2 2 2 2 2 2
2 2 2 2 2 1 1 1 1 1 1 1 1 1 1 2 1 1 1 1 1 2 2 2 2 1 1 1 1 1 1 1 1 1 2 2 2 2 3 2 2 2 2
2 2 2 2 2 1 1 1 1 1 1 0 0 1 1 1 1 1 1 1 1 2 1 1 1 2 1 1 1 1 1 1 1 2 2 3 2 2 2 2 3 3 2
3 2 1 1 2 2 1 1 1 1 1 1 1 0 1 1 1 1 1 2 2 2 1 1 1 2 2 1 1 1 1 2 2 2 2 3 3 3 3 2 2 3 3
3 2 1 1 1 1 1 2 2 2 2 1 1 1 1 1 1 1 2 2 2 2 2 2 1 2 2 3 3 2 3 2 2 2 2 2 3 3 3 3 3 3 3
3 3 3 2 1 1 1 1 2 2 2 2 1 1 1 1 1 1 2 2 2 2 2 2 2 2 2 2 3 3 2 2 1 2 2 2 3 3 3 3 4 4 4
Wind_Direction
171 182 184 195 195 201 215 191 193 195 202 201 197 198 207 208 207 216 229 221 219 221 228 224 248 280 314 312 318 325 322 323 304 308 334 340 352 354 126 262 240 208 219
163 159 178 193 192 197 204 197 198 200 213 208 202 208 215 210 207 213 233 235 234 231 235 247 256 267 293 308 322 321 323 313 296 301 304 297 281 253 243 257 277 259 232
160 176 175 191 198 199 192 202 213 207 214 208 204 210 217 216 214 216 226 240 243 239 236 235 259 270 266 289 296 303 303 301 283 282 287 283 280 279 280 283 291 293 284
153 177 177 200 219 211 203 206 212 211 211 209 209 211 214 212 215 219 222 232 242 243 237 229 243 247 238 266 273 282 291 300 299 295 291 289 280 279 254 280 300 294 297
168 200 194 203 216 224 226 228 231 229 219 216 221 219 217 211 218 216 231 230 234 248 259 252 245 178 135 249 284 300 297 291 292 300 297 306 304 321 310 294 298 295 285
187 218 205 198 212 222 223 230 231 234 226 220 221 225 225 222 181 169 197 250 244 245 254 268 251 195 195 216 252 281 287 274 283 287 291 294 296 309 321 307 302 305 304
207 223 207 204 212 215 224 223 225 235 225 217 223 224 214 212 180 182 198 232 235 240 243 250 268 261 195 228 237 248 269 274 254 259 269 279 290 294 303 305 302 304 296
208 222 230 221 220 219 219 222 226 226 224 217 220 227 220 208 180 184 200 221 243 240 238 240 248 272 286 297 276 267 269 278 253 239 254 269 284 291 277 270 276 283 278
229 234 247 236 233 233 220 214 218 222 227 222 221 226 222 206 188 186 186 228 236 238 234 241 231 204 251 258 253 264 271 276 288 274 256 263 269 285 289 296 283 286 291
259 255 265 256 240 237 232 221 219 219 225 225 226 225 224 212 188 187 192 221 231 239 223 215 215 219 222 237 257 258 263 273 298 311 300 285 269 268 256 233 256 273 285
253 252 258 258 248 237 226 227 227 225 225 226 227 230 224 211 188 193 197 217 237 245 240 219 189 188 225 244 251 252 249 262 274 269 262 256 246 247 244 231 230 236 262
254 262 270 264 253 238 227 234 230 223 228 230 224 227 219 201 189 196 201 217 244 244 242 228 188 211 236 253 254 265 267 274 267 262 262 256 250 253 249 242 237 235 228
270 260 264 265 254 235 231 237 234 227 231 233 224 225 214 195 179 181 194 215 232 245 271 282 256 243 246 249 251 256 253 253 259 264 268 264 257 252 251 243 242 243 245
270 249 248 248 246 238 248 246 244 242 238 233 232 229 210 180 164 170 183 202 218 235 259 262 250 247 250 251 251 240 231 238 250 261 271 277 276 253 252 246 245 244 262
293 267 258 246 238 224 247 257 244 254 246 236 252 237 205 163 136 138 170 189 189 185 241 251 244 238 243 237 238 230 230 234 246 257 258 264 259 258 251 243 246 260 262
292 291 284 267 246 230 224 238 10 224 173 153 146 160 114 143 160 155 158 153 158 165 209 251 251 249 250 249 254 257 246 245 258 269 271 271 263 254 248 239 249 251 256
316 305 286 277 263 246 230 218 214 215 212 209 199 184 195 190 178 201 222 224 229 187 223 248 252 255 260 265 267 266 267 266 264 273 273 276 284 278 265 256 251 262 265
308 294 282 276 270 260 248 232 230 218 214 210 210 202 206 196 201 215 214 211 239 215 230 244 252 261 263 261 268 280 290 293 285 282 284 284 291 285 274 267 264 272 281
294 297 302 301 293 285 286 276 260 246 231 199 134 129 200 197 201 220 205 235 244 243 247 250 253 260 269 281 286 287 290 287 294 298 291 288 289 289 290 295 293 293 287
288 308 306 305 297 298 300 294 283 269 242 204 200 173 152 184 202 197 201 222 244 258 262 263 262 257 258 266 279 290 299 304 300 295 310 314 307 300 296 296 296 294 288
288 299 283 279 277 273 268 269 267 263 251 239 184 125 149 212 225 214 210 206 228 256 268 273 284 278 266 270 276 288 293 294 303 309 304 306 316 311 300 295 295 308 313
300 297 295 286 288 297 293 287 286 294 283 281 141 152 199 249 251 240 263 291 271 255 263 275 283 278 270 288 298 301 302 309 311 318 316 307 312 312 314 315 320 321 314
279 268 277 289 290 278 264 291 304 294 291 323 253 203 221 250 277 316 329 316 312 311 299 274 283 290 306 355 348 318 300 308 315 309 299 296 296 293 297 302 307 308 306
294 284 287 296 304 315 341 347 346 357 18 5 344 337 342 352 336 338 337 334 331 325 328 320 312 331 342 340 320 7 27 10 333 308 303 299 299 299 304 306 303 306 314
327 345 343 327 326 347 10 12 16 13 5 354 351 357 343 334 329 333 336 332 331 331 337 341 340 351 356 6 20 45 57 53 20 339 313 297 299 301 300 304 306 303 303
354 357 347 357 10 5 16 26 13 4 352 350 353 355 340 327 325 339 351 344 337 339 342 350 8 26 21 27 51 65 79 72 21 336 303 291 286 290 300 301 301 298 294